This is the latest recevied weather packets stored in our database for station/object OK2JF-6. If no packets are shown the sender has not sent any weather packets the latest 10 day(s).
| Time | Temp. | Humidity | Pressure | Rain* | Wind** | Luminosity | Snow |
|---|---|---|---|---|---|---|---|
| 1778000104 | 21.67° C | 38% | 1077.2 hPa | 0 mm | - | 29 W/m² | - |
| 1777999923 | 21.67° C | 38% | 1076.8 hPa | 0 mm | - | 32 W/m² | - |
| 1777999864 | 21.67° C | 38% | 1077 hPa | 0 mm | - | 33 W/m² | - |
| 1777999458 | 21.67° C | 37% | 1077.2 hPa | 0 mm | - | 37 W/m² | - |
| 1777998738 | 21.67° C | 37% | 1077.2 hPa | 0 mm | - | 41 W/m² | - |
| 1777998423 | 21.67° C | 36% | 1077.2 hPa | 0 mm | - | 56 W/m² | - |
| 1777998123 | 21.67° C | 36% | 1077.7 hPa | 0 mm | - | 53 W/m² | - |
| 1777997943 | 21.67° C | 37% | 1077.6 hPa | 0 mm | - | 57 W/m² | - |
| 1777997703 | 21.67° C | 37% | 1077.6 hPa | 0 mm | - | 53 W/m² | - |
| 1777996683 | 22.22° C | 34% | 1077.9 hPa | 0 mm | - | 44 W/m² | - |
| 1777996323 | 22.78° C | 34% | 1077.7 hPa | 0 mm | - | 46 W/m² | - |
| 1777995963 | 22.78° C | 34% | 1077.6 hPa | 0 mm | - | 109 W/m² | - |
| 1777995783 | 23.33° C | 34% | 1077.7 hPa | 0 mm | - | 124 W/m² | - |
| 1777995483 | 23.33° C | 35% | 1077.7 hPa | 0 mm | - | 135 W/m² | - |
| 1777995423 | 23.33° C | 35% | 1077.5 hPa | 0 mm | - | 136 W/m² | - |
| 1777995078 | 23.33° C | 35% | 1077.6 hPa | 0 mm | - | 145 W/m² | - |
| 1777994703 | 23.33° C | 36% | 1077.7 hPa | 0 mm | - | 146 W/m² | - |
| 1777994283 | 23.33° C | 37% | 1077.8 hPa | 0 mm | - | 164 W/m² | - |
| 1777994223 | 23.33° C | 37% | 1077.9 hPa | 0 mm | - | 166 W/m² | - |
| 1777993503 | 23.33° C | 38% | 1077.8 hPa | 0 mm | - | 150 W/m² | - |
| 1777993323 | 23.33° C | 37% | 1077.9 hPa | 0 mm | - | 188 W/m² | - |
| 1777993157 | 23.33° C | 37% | 1077.9 hPa | 0 mm | - | 190 W/m² | - |
| 1777992903 | 23.33° C | 38% | 1078.1 hPa | 0 mm | - | 195 W/m² | - |
| 1777992843 | 23.33° C | 38% | 1078.2 hPa | 0 mm | - | 196 W/m² | - |
| 1777992783 | 23.33° C | 38% | 1078.1 hPa | 0 mm | - | 201 W/m² | - |
* Rain latest hour (hover to see other rain measurements)
** Current wind speed in m/s (hover to see current wind gust speed)